Location: Asheville, NC
(35.6000°N, 82.5500°W)
Time: 11:54:02

XW-2B - Pass Details

Date: 04 January 2018
Orbit: 511 x 530 km, 97.5° (Epoch: 20 March)

Event Time Altitude Azimuth Distance (km) Brightness Sun altitude
Rises 06:04:06 0° 22° (NNE) 2,662 ? -19.0°
Reaches altitude 10° 06:06:22 10° 32° (NNE) 1,765 ? -18.6°
Maximum altitude 06:09:51 33° 98° (E) 886 ? -17.9°
Drops below altitude 10° 06:13:16 10° 163° (SSE) 1,742 ? -17.2°
Sets 06:15:30 0° 173° (S) 2,621 ? -16.8°
